Weather History for PABV - September, 2013

Change the Weather History Date:

Monday, September 16, 2013

  Actual Average Record
Temperature  
Mean Temperature 46 °F -  
Max Temperature 53 °F 52 °F 61 °F (1991)
Min Temperature 39 °F 37 °F 28 °F (1992)
Degree Days  
Heating Degree Days 19    
Moisture  
Dew Point 40 °F    
Average Humidity 79    
Maximum Humidity 100    
Minimum Humidity 54    
Precipitation  
Precipitation 0.00 in - - ()
Sea Level Pressure  
Sea Level Pressure 29.58 in    
Wind  
Wind Speed 2 mph (SW)    
Max Wind Speed 7 mph    
Max Gust Speed -    
Visibility 10 miles    
Events      
Averages and records for this station are not official NWS values.
T = Trace of Precipitation, MM = Missing Value Source: NWS Daily Summary

Daily Weather History Graph

Daily Weather History Graph

Search for Another Location

Airport or City:

Trip Planner

Search our weather history database for the weather conditions in past years. The results will help you decide how hot, cold, wet, or windy it might be!

Date:

Astronomy

Sep. 16, 2013 Rise Set
Actual Time 7:28 AM AKDT 8:15 PM AKDT
Civil Twilight 6:43 AM AKDT 8:59 PM AKDT
Nautical Twilight 5:49 AM AKDT 9:53 PM AKDT
Astronomical Twilight 4:46 AM AKDT 10:55 PM AKDT
Moon 6:58 PM AKDT (9/16) 3:45 AM AKDT (9/16)
Length of Visible Light 14h 15m
Length of Day
12h 47m
Waxing Gibbous, 91% of the Moon is Illuminated
Sep 16
Waxing Gibbous
Sep 19
Full
Sep 26
Last Quarter
Oct 4
New
Oct 11
First Quarter

Hourly Weather History & Observations

Time (AKDT) Temp. Windchill Dew Point Humidity Pressure Visibility Wind Dir Wind Speed Gust Speed Precip Events Conditions
12:16 AM 44.6 °F - 42.8 °F 93% 29.71 in 10.0 mi Calm Calm - N/A   Clear
12:36 AM 44.6 °F 43.1 °F 42.8 °F 93% 29.71 in 10.0 mi SSE 3.5 mph - N/A   Clear
12:56 AM 44.6 °F - 42.8 °F 93% 29.70 in 10.0 mi Calm Calm - N/A   Clear
1:16 AM 44.6 °F 43.1 °F 42.8 °F 93% 29.70 in 10.0 mi North 3.5 mph - N/A   Clear
1:36 AM 44.6 °F - 42.8 °F 93% 29.69 in 10.0 mi Calm Calm - N/A   Clear
1:56 AM 44.6 °F - 42.8 °F 93% 29.70 in 10.0 mi Calm Calm - N/A   Clear
2:16 AM 42.8 °F - 41.0 °F 93% 29.69 in 10.0 mi Calm Calm - N/A   Clear
2:36 AM 42.8 °F 41.1 °F 42.8 °F 100% 29.69 in 10.0 mi NW 3.5 mph - N/A   Clear
2:56 AM 44.6 °F - 41.0 °F 87% 29.69 in 10.0 mi Calm Calm - N/A   Clear
3:16 AM 42.8 °F - 41.0 °F 93% 29.69 in 10.0 mi Calm Calm - N/A   Clear
3:36 AM 42.8 °F 39.3 °F 41.0 °F 93% 29.68 in 10.0 mi SSE 5.8 mph - N/A   Clear
3:56 AM 41.0 °F - 39.2 °F 93% 29.67 in 10.0 mi Calm Calm - N/A   Clear
4:16 AM 42.8 °F - 39.2 °F 87% 29.66 in 10.0 mi Calm Calm - N/A   Clear
4:36 AM 39.2 °F 34.2 °F 39.2 °F 100% 29.66 in 10.0 mi South 6.9 mph - N/A   Clear
4:56 AM 42.8 °F 40.1 °F 39.2 °F 87% 29.66 in 10.0 mi SSW 4.6 mph - N/A   Clear
5:16 AM 42.8 °F 39.3 °F 39.2 °F 87% 29.65 in 10.0 mi SSW 5.8 mph - N/A   Clear
5:36 AM 42.8 °F 40.1 °F 39.2 °F 87% 29.65 in 10.0 mi SSW 4.6 mph - N/A   Clear
5:56 AM 41.0 °F - 39.2 °F 93% 29.64 in 10.0 mi Calm Calm - N/A   Clear
6:16 AM 41.0 °F 39.0 °F 39.2 °F 93% 29.64 in 10.0 mi South 3.5 mph - N/A   Clear
6:36 AM 41.0 °F 39.0 °F 37.4 °F 87% 29.64 in 10.0 mi South 3.5 mph - N/A   Clear
6:56 AM 39.2 °F 35.9 °F 37.4 °F 93% 29.63 in 10.0 mi SSW 4.6 mph - N/A   Clear
7:16 AM 39.2 °F 35.9 °F 37.4 °F 93% 29.63 in 10.0 mi SSW 4.6 mph - N/A   Clear
7:36 AM 39.2 °F 35.9 °F 37.4 °F 93% 29.62 in 10.0 mi South 4.6 mph - N/A   Clear
7:56 AM 41.0 °F 39.0 °F 37.4 °F 87% 29.62 in 10.0 mi SSE 3.5 mph - N/A   Clear
8:16 AM 39.2 °F - 37.4 °F 93% 29.62 in 10.0 mi Calm Calm - N/A   Clear
8:36 AM 39.2 °F - 37.4 °F 93% 29.62 in 10.0 mi Calm Calm - N/A   Clear
8:56 AM 39.2 °F - 39.2 °F 100% 29.61 in 10.0 mi Calm Calm - N/A   Clear
9:16 AM 42.8 °F - 39.2 °F 87% 29.61 in 10.0 mi Calm Calm - N/A   Clear
9:36 AM 42.8 °F - 39.2 °F 87% 29.60 in 10.0 mi Calm Calm - N/A   Clear
9:56 AM 44.6 °F - 39.2 °F 81% 29.60 in 10.0 mi Calm Calm - N/A   Clear
10:16 AM 44.6 °F - 39.2 °F 81% 29.60 in 10.0 mi Calm Calm - N/A   Clear
10:36 AM 46.4 °F 44.3 °F 39.2 °F 76% 29.59 in 10.0 mi SW 4.6 mph - N/A   Clear
10:56 AM 46.4 °F 45.2 °F 39.2 °F 76% 29.59 in 10.0 mi West 3.5 mph - N/A   Clear
11:16 AM 46.4 °F 45.2 °F 39.2 °F 76% 29.59 in 10.0 mi SSW 3.5 mph - N/A   Clear
11:36 AM 46.4 °F 43.5 °F 41.0 °F 81% 29.58 in 10.0 mi West 5.8 mph - N/A   Clear
11:56 AM 48.2 °F - 42.8 °F 82% 29.58 in 10.0 mi West 3.5 mph - N/A   Clear
12:16 PM 48.2 °F - 42.8 °F 82% 29.58 in 10.0 mi West 5.8 mph - N/A   Clear
12:36 PM 48.2 °F - 41.0 °F 76% 29.57 in 10.0 mi West 3.5 mph - N/A   Clear
12:56 PM 48.2 °F - 41.0 °F 76% 29.57 in 10.0 mi West 4.6 mph - N/A   Clear
1:16 PM 50.0 °F - 39.2 °F 66% 29.56 in 10.0 mi West 6.9 mph - N/A   Clear
1:36 PM 51.8 °F - 39.2 °F 62% 29.56 in 10.0 mi West 4.6 mph - N/A   Clear
1:56 PM 51.8 °F - 39.2 °F 62% 29.55 in 10.0 mi West 5.8 mph - N/A   Clear
2:16 PM 51.8 °F - 39.2 °F 62% 29.55 in 10.0 mi West 3.5 mph - N/A   Clear
2:36 PM 51.8 °F - 39.2 °F 62% 29.55 in 10.0 mi West 3.5 mph - N/A   Clear
2:56 PM 51.8 °F - 37.4 °F 58% 29.54 in 10.0 mi Calm Calm - N/A   Clear
3:16 PM 51.8 °F - 37.4 °F 58% 29.54 in 10.0 mi Calm Calm - N/A   Clear
3:36 PM 51.8 °F - 39.2 °F 62% 29.54 in 10.0 mi Calm Calm - N/A   Clear
3:56 PM 51.8 °F - 37.4 °F 58% 29.53 in 10.0 mi West 3.5 mph - N/A   Clear
4:16 PM 51.8 °F - 37.4 °F 58% 29.53 in 10.0 mi West 4.6 mph - N/A   Clear
4:36 PM 51.8 °F - 39.2 °F 62% 29.52 in 10.0 mi West 3.5 mph - N/A   Clear
4:56 PM 51.8 °F - 39.2 °F 62% 29.52 in 10.0 mi WSW 3.5 mph - N/A   Clear
5:16 PM 51.8 °F - 39.2 °F 62% 29.52 in 10.0 mi Calm Calm - N/A   Clear
5:36 PM 51.8 °F - 39.2 °F 62% 29.51 in 10.0 mi Calm Calm - N/A   Clear
5:56 PM 53.6 °F - 37.4 °F 54% 29.51 in 10.0 mi Calm Calm - N/A   Clear
6:16 PM 53.6 °F - 37.4 °F 54% 29.50 in 10.0 mi WNW 3.5 mph - N/A   Clear
6:36 PM 53.6 °F - 39.2 °F 58% 29.50 in 10.0 mi Calm Calm - N/A   Clear
6:56 PM 53.6 °F - 37.4 °F 54% 29.50 in 10.0 mi Calm Calm - N/A   Partly Cloudy
7:16 PM 51.8 °F - 39.2 °F 62% 29.50 in 10.0 mi Calm Calm - N/A   Partly Cloudy
7:36 PM 51.8 °F - 37.4 °F 58% 29.50 in 10.0 mi Calm Calm - N/A   Clear
7:56 PM 51.8 °F - 42.8 °F 71% 29.50 in 10.0 mi Calm Calm - N/A   Clear
8:16 PM 51.8 °F - 42.8 °F 71% 29.50 in 10.0 mi ESE 3.5 mph - N/A   Scattered Clouds
8:36 PM 50.0 °F - 42.8 °F 76% 29.51 in 10.0 mi SE 3.5 mph - N/A   Overcast
8:56 PM 50.0 °F - 44.6 °F 82% 29.51 in 10.0 mi ESE 4.6 mph - N/A   Overcast
9:16 PM 50.0 °F - 44.6 °F 82% 29.51 in 10.0 mi ESE 3.5 mph - N/A   Overcast
9:36 PM 50.0 °F - 44.6 °F 82% 29.51 in 10.0 mi ESE 3.5 mph - N/A   Overcast
9:56 PM 50.0 °F - 44.6 °F 82% 29.51 in 10.0 mi ESE 3.5 mph - N/A   Overcast
10:16 PM 50.0 °F - 42.8 °F 76% 29.51 in 10.0 mi ESE 3.5 mph - N/A   Overcast
10:36 PM 50.0 °F - 42.8 °F 76% 29.50 in 10.0 mi East 3.5 mph - N/A   Overcast
10:56 PM 50.0 °F - 42.8 °F 76% 29.50 in 10.0 mi Calm Calm - N/A   Mostly Cloudy
11:16 PM 48.2 °F - 42.8 °F 82% 29.50 in 10.0 mi SSE 3.5 mph - N/A   Mostly Cloudy
11:36 PM 48.2 °F - 44.6 °F 87% 29.50 in 10.0 mi NE 3.5 mph - N/A   Partly Cloudy
11:56 PM 46.4 °F - 42.8 °F 87% 29.50 in 10.0 mi Calm Calm - N/A   Mostly Cloudy